"read_dt","SO2 (ppb)","flags","PMT voltage (V)","lamp voltage (V)","lamp intensity (Hz)","internal temp (C)","react chamber temp (C)","sample flow (l/min)","pres (mmHg)","SO2 bkg (ppb)","SO2 coefficient"
2016-06-19 00:00:00,2181E-3,5C000400,-0724,0831,12282,031.7,045.5,0.248,753.2,01.17,0.508
2016-06-19 00:01:00,2087E-3,5C000400,-0724,0831,12375,031.7,045.5,0.248,753.2,01.17,0.508
2016-06-19 00:02:00,2141E-3,5C000400,-0724,0831,12125,031.7,045.5,0.248,753.1,01.17,0.508
2016-06-19 00:03:00,2083E-3,5C000400,-0724,0830,12273,031.7,045.5,0.248,753.1,01.17,0.508
2016-06-19 00:04:00,2229E-3,5C000400,-0724,0830,12221,031.7,045.5,0.248,753.1,01.17,0.508
2016-06-19 00:05:00,2168E-3,5C000400,-0724,0831,12144,031.7,045.5,0.248,753.1,01.17,0.508
2016-06-19 00:06:00,2084E-3,5C000400,-0724,0831,12201,031.7,045.5,0.248,753.1,01.17,0.508
2016-06-19 00:07:00,2268E-3,5C000400,-0724,0831,12222,031.7,045.6,0.248,753.1,01.17,0.508
2016-06-19 00:08:00,2139E-3,5C000400,-0724,0831,12265,031.7,045.6,0.248,753.1,01.17,0.508
2016-06-19 00:09:00,2053E-3,5C000400,-0724,0831,11999,031.8,045.5,0.248,753.1,01.17,0.508
2016-06-19 00:10:00,2065E-3,5C000400,-0724,0832,12275,031.8,045.5,0.248,753.0,01.17,0.508
2016-06-19 00:11:00,2205E-3,5C000400,-0724,0831,12130,031.8,045.5,0.248,753.0,01.17,0.508
2016-06-19 00:12:00,2124E-3,5C000400,-0724,0830,12233,031.8,045.5,0.248,753.0,01.17,0.508
2016-06-19 00:13:00,2170E-3,5C000400,-0724,0830,12135,031.8,045.5,0.248,753.0,01.17,0.508
2016-06-19 00:14:00,2101E-3,5C000400,-0724,0831,12160,031.8,045.5,0.248,753.0,01.17,0.508
2016-06-19 00:15:00,2166E-3,5C000400,-0724,0830,12097,031.8,045.5,0.248,753.0,01.17,0.508
2016-06-19 00:16:00,2067E-3,5C000400,-0724,0831,12149,031.8,045.5,0.247,753.0,01.17,0.508
2016-06-19 00:17:00,2216E-3,5C000400,-0724,0832,12216,031.8,045.5,0.248,753.0,01.17,0.508
2016-06-19 00:18:00,2128E-3,5C000400,-0724,0831,12119,031.8,045.6,0.248,753.0,01.17,0.508
2016-06-19 00:19:00,2136E-3,5C000400,-0724,0832,12214,031.8,045.6,0.248,753.0,01.17,0.508
2016-06-19 00:20:00,2152E-3,5C000400,-0724,0831,12189,031.8,045.6,0.248,752.9,01.17,0.508
2016-06-19 00:21:00,2192E-3,5C000400,-0724,0830,12067,031.8,045.6,0.248,753.0,01.17,0.508
2016-06-19 00:22:00,2136E-3,5C000400,-0724,0830,12126,031.8,045.5,0.248,753.0,01.17,0.508
2016-06-19 00:23:00,2085E-3,5C000400,-0724,0831,12291,031.8,045.5,0.247,752.9,01.17,0.508
2016-06-19 00:24:00,2202E-3,5C000400,-0724,0831,12165,031.8,045.6,0.248,752.9,01.17,0.508
2016-06-19 00:25:00,2220E-3,5C000400,-0724,0831,12081,031.8,045.6,0.248,752.9,01.17,0.508
2016-06-19 00:26:00,2090E-3,5C000400,-0724,0831,12129,031.8,045.5,0.248,752.9,01.17,0.508
2016-06-19 00:27:00,1997E-3,5C000400,-0724,0831,12213,031.9,045.5,0.248,752.9,01.17,0.508
2016-06-19 00:28:00,2157E-3,5C000400,-0724,0831,12216,031.8,045.5,0.248,752.9,01.17,0.508
2016-06-19 00:29:00,2129E-3,5C000400,-0724,0830,12261,031.9,045.6,0.248,752.8,01.17,0.508
2016-06-19 00:30:00,2143E-3,5C000400,-0724,0832,12280,031.9,045.5,0.248,752.9,01.17,0.508
2016-06-19 00:31:00,2234E-3,5C000400,-0724,0831,12127,031.9,045.5,0.247,752.8,01.17,0.508
2016-06-19 00:32:00,2050E-3,5C000400,-0724,0831,12225,031.9,045.6,0.248,752.8,01.17,0.508
2016-06-19 00:33:00,1983E-3,5C000400,-0724,0832,11065,031.9,045.6,0.248,752.8,01.17,0.508
2016-06-19 00:34:00,2037E-3,5C000400,-0724,0830,12008,031.9,045.5,0.247,752.8,01.17,0.508
2016-06-19 00:35:00,2092E-3,5C000400,-0724,0831,12174,031.9,045.5,0.248,752.8,01.17,0.508
2016-06-19 00:36:00,2178E-3,5C000400,-0724,0831,12215,031.9,045.5,0.248,752.8,01.17,0.508
2016-06-19 00:37:00,2035E-3,5C000400,-0724,0830,12220,031.9,045.6,0.247,752.8,01.17,0.508
2016-06-19 00:38:00,2083E-3,5C000400,-0724,0831,12171,031.9,045.6,0.248,752.8,01.17,0.508
2016-06-19 00:39:00,2207E-3,5C000400,-0724,0831,12289,031.9,045.6,0.248,752.8,01.17,0.508
2016-06-19 00:40:00,2129E-3,5C000400,-0724,0831,12078,031.9,045.6,0.248,752.8,01.17,0.508
2016-06-19 00:41:00,2195E-3,5C000400,-0724,0831,12221,031.9,045.6,0.248,752.8,01.17,0.508
2016-06-19 00:42:00,2147E-3,5C000400,-0724,0831,12187,032.0,045.5,0.247,752.8,01.17,0.508
2016-06-19 00:43:00,2035E-3,5C000400,-0724,0832,12161,032.0,045.6,0.248,752.7,01.17,0.508
2016-06-19 00:44:00,2040E-3,5C000400,-0724,0831,12102,032.0,045.6,0.248,752.7,01.17,0.508
2016-06-19 00:45:00,2317E-3,5C000400,-0724,0831,12258,032.0,045.6,0.247,752.7,01.17,0.508
2016-06-19 00:46:00,2104E-3,5C000400,-0724,0830,12204,032.0,045.6,0.248,752.7,01.17,0.508
2016-06-19 00:47:00,1989E-3,5C000400,-0724,0831,12132,032.0,045.6,0.248,752.7,01.17,0.508
2016-06-19 00:48:00,2137E-3,5C000400,-0724,0831,12145,032.0,045.6,0.247,752.6,01.17,0.508
2016-06-19 00:49:00,2141E-3,5C000400,-0724,0831,12242,032.0,045.6,0.248,752.6,01.17,0.508
2016-06-19 00:50:00,2156E-3,5C000400,-0724,0832,12154,032.0,045.6,0.248,752.6,01.17,0.508
2016-06-19 00:51:00,2290E-3,5C000400,-0724,0831,12320,032.0,045.5,0.247,752.6,01.17,0.508
2016-06-19 00:52:00,2112E-3,5C000400,-0724,0832,12202,032.0,045.6,0.248,752.6,01.17,0.508
2016-06-19 00:53:00,2148E-3,5C000400,-0724,0830,12301,032.1,045.6,0.247,752.6,01.17,0.508
2016-06-19 00:54:00,2097E-3,5C000400,-0724,0831,12213,032.0,045.6,0.247,752.6,01.17,0.508
2016-06-19 00:55:00,2173E-3,5C000400,-0724,0831,12069,032.0,045.6,0.248,752.6,01.17,0.508
2016-06-19 00:56:00,2168E-3,5C000400,-0724,0831,12346,032.1,045.6,0.247,752.6,01.17,0.508
2016-06-19 00:57:00,2098E-3,5C000400,-0724,0830,11967,032.1,045.5,0.247,752.6,01.17,0.508
2016-06-19 00:58:00,2056E-3,5C000400,-0724,0831,12192,032.1,045.6,0.247,752.6,01.17,0.508
2016-06-19 00:59:00,2110E-3,5C000400,-0724,0831,12072,032.1,045.6,0.247,752.6,01.17,0.508
2016-06-19 01:00:00,2062E-3,5C000400,-0724,0831,12073,032.1,045.6,0.247,752.6,01.17,0.508
2016-06-19 01:01:00,2165E-3,5C000400,-0724,0831,12137,032.1,045.5,0.247,752.6,01.17,0.508
2016-06-19 01:02:00,2133E-3,5C000400,-0724,0831,12151,032.1,045.5,0.247,752.6,01.17,0.508
2016-06-19 01:03:00,2140E-3,5C000400,-0724,0831,12258,032.1,045.5,0.247,752.6,01.17,0.508
2016-06-19 01:04:00,2072E-3,5C000400,-0724,0831,12226,032.1,045.5,0.247,752.6,01.17,0.508
2016-06-19 01:05:00,2082E-3,5C000400,-0724,0830,12235,032.1,045.6,0.247,752.6,01.17,0.508
2016-06-19 01:06:00,2165E-3,5C000400,-0724,0830,12159,032.1,045.6,0.247,752.6,01.17,0.508
2016-06-19 01:07:00,2071E-3,5C000400,-0724,0830,12192,032.1,045.6,0.247,752.6,01.17,0.508
2016-06-19 01:08:00,2144E-3,5C000400,-0724,0831,12236,032.1,045.5,0.247,752.5,01.17,0.508
2016-06-19 01:09:00,2217E-3,5C000400,-0724,0830,12286,032.1,045.6,0.247,752.5,01.17,0.508
2016-06-19 01:10:00,2097E-3,5C000400,-0724,0830,12108,032.1,045.6,0.247,752.5,01.17,0.508
2016-06-19 01:11:00,2119E-3,5C000400,-0724,0831,12107,032.1,045.5,0.247,752.5,01.17,0.508
2016-06-19 01:12:00,1999E-3,5C000400,-0724,0831,12267,032.1,045.6,0.247,752.5,01.17,0.508
2016-06-19 01:13:00,2265E-3,5C000400,-0724,0832,11989,032.2,045.6,0.247,752.5,01.17,0.508
2016-06-19 01:14:00,2022E-3,5C000400,-0724,0831,11971,032.2,045.6,0.247,752.5,01.17,0.508
2016-06-19 01:15:00,2241E-3,5C000400,-0724,0831,12186,032.2,045.6,0.247,752.5,01.17,0.508
2016-06-19 01:16:00,2188E-3,5C000400,-0724,0829,12163,032.2,045.6,0.246,752.5,01.17,0.508
2016-06-19 01:17:00,2109E-3,5C000400,-0724,0830,12158,032.2,045.6,0.247,752.5,01.17,0.508
2016-06-19 01:18:00,2047E-3,5C000400,-0724,0830,12194,032.2,045.6,0.247,752.5,01.17,0.508
2016-06-19 01:19:00,2210E-3,5C000400,-0724,0831,12117,032.2,045.6,0.247,752.5,01.17,0.508
2016-06-19 01:20:00,2094E-3,5C000400,-0724,0831,12212,032.2,045.6,0.247,752.5,01.17,0.508
2016-06-19 01:21:00,2187E-3,5C000400,-0724,0831,12114,032.2,045.6,0.247,752.5,01.17,0.508
2016-06-19 01:22:00,1987E-3,5C000400,-0724,0830,12093,032.3,045.6,0.247,752.5,01.17,0.508
2016-06-19 01:23:00,2131E-3,5C000400,-0724,0830,12043,032.3,045.6,0.247,752.5,01.17,0.508
2016-06-19 01:24:00,2262E-3,5C000400,-0724,0830,12078,032.3,045.6,0.247,752.5,01.17,0.508
2016-06-19 01:25:00,2098E-3,5C000400,-0724,0831,12165,032.3,045.6,0.247,752.5,01.17,0.508
2016-06-19 01:26:00,2024E-3,5C000400,-0724,0831,12225,032.3,045.6,0.247,752.5,01.17,0.508
2016-06-19 01:27:00,2099E-3,5C000400,-0724,0831,12242,032.3,045.6,0.246,752.5,01.17,0.508
2016-06-19 01:28:00,2176E-3,5C000400,-0724,0831,12190,032.3,045.6,0.247,752.4,01.17,0.508
2016-06-19 01:29:00,2121E-3,5C000400,-0724,0830,12161,032.3,045.6,0.247,752.5,01.17,0.508
2016-06-19 01:30:00,2128E-3,5C000400,-0724,0832,12238,032.3,045.6,0.246,752.5,01.17,0.508
2016-06-19 01:31:00,2021E-3,5C000400,-0724,0831,12256,032.3,045.6,0.247,752.5,01.17,0.508
2016-06-19 01:32:00,2000E-3,5C000400,-0724,0831,12315,032.3,045.6,0.247,752.5,01.17,0.508
2016-06-19 01:33:00,2271E-3,5C000400,-0724,0831,12208,032.3,045.6,0.246,752.4,01.17,0.508
2016-06-19 01:34:00,2199E-3,5C000400,-0724,0832,12178,032.3,045.6,0.247,752.5,01.17,0.508
2016-06-19 01:35:00,2197E-3,5C000400,-0724,0832,12142,032.4,045.6,0.247,752.5,01.17,0.508
2016-06-19 01:36:00,2035E-3,5C000400,-0724,0831,12077,032.4,045.6,0.246,752.4,01.17,0.508
2016-06-19 01:37:00,2260E-3,5C000400,-0723,0831,12038,032.4,045.6,0.247,752.4,01.17,0.508
2016-06-19 01:38:00,2182E-3,5C000400,-0724,0831,12132,032.4,045.6,0.247,752.4,01.17,0.508
2016-06-19 01:39:00,2104E-3,5C000400,-0724,0831,12109,032.4,045.6,0.246,752.4,01.17,0.508
2016-06-19 01:40:00,2112E-3,5C000400,-0724,0830,12160,032.4,045.6,0.247,752.4,01.17,0.508
2016-06-19 01:41:00,1984E-3,5C000400,-0724,0831,12157,032.4,045.6,0.247,752.4,01.17,0.508
2016-06-19 01:42:00,2158E-3,5C000400,-0724,0831,12187,032.4,045.6,0.246,752.4,01.17,0.508
2016-06-19 01:43:00,2187E-3,5C000400,-0723,0831,11995,032.4,045.6,0.247,752.4,01.17,0.508
2016-06-19 01:44:00,2241E-3,5C000400,-0724,0831,12144,032.4,045.6,0.246,752.3,01.17,0.508
2016-06-19 01:45:00,2259E-3,5C000400,-0723,0832,12175,032.4,045.6,0.246,752.3,01.17,0.508
2016-06-19 01:46:00,2174E-3,5C000400,-0724,0831,12186,032.4,045.6,0.247,752.3,01.17,0.508
2016-06-19 01:47:00,2161E-3,5C000400,-0724,0831,12077,032.5,045.6,0.246,752.3,01.17,0.508
2016-06-19 01:48:00,1990E-3,5C000400,-0723,0831,12137,032.5,045.6,0.246,752.3,01.17,0.508
2016-06-19 01:49:00,2096E-3,5C000400,-0723,0832,12213,032.5,045.6,0.247,752.3,01.17,0.508
2016-06-19 01:50:00,2056E-3,5C000400,-0724,0831,12066,032.5,045.6,0.247,752.2,01.17,0.508
2016-06-19 01:51:00,2153E-3,5C000400,-0724,0831,12114,032.5,045.6,0.246,752.2,01.17,0.508
2016-06-19 01:52:00,2244E-3,5C000400,-0724,0831,12217,032.5,045.6,0.246,752.2,01.17,0.508
2016-06-19 01:53:00,2094E-3,5C000400,-0724,0831,12169,032.5,045.6,0.247,752.2,01.17,0.508
2016-06-19 01:54:00,2244E-3,5C000400,-0723,0831,12135,032.5,045.6,0.246,752.2,01.17,0.508
2016-06-19 01:55:00,2084E-3,5C000400,-0724,0831,12200,032.5,045.6,0.246,752.2,01.17,0.508
2016-06-19 01:56:00,2114E-3,5C000400,-0723,0832,12150,032.5,045.6,0.246,752.2,01.17,0.508
2016-06-19 01:57:00,2268E-3,5C000400,-0724,0831,12174,032.5,045.6,0.246,752.2,01.17,0.508
2016-06-19 01:58:00,2142E-3,5C000400,-0723,0831,12171,032.5,045.6,0.246,752.2,01.17,0.508
2016-06-19 01:59:00,2140E-3,5C000400,-0723,0831,12132,032.6,045.6,0.246,752.2,01.17,0.508
2016-06-19 02:00:00,2050E-3,5C000400,-0724,0831,12260,032.6,045.6,0.246,752.2,01.17,0.508
2016-06-19 02:01:00,2090E-3,5C000400,-0723,0831,12217,032.6,045.6,0.246,752.2,01.17,0.508
2016-06-19 02:02:00,2126E-3,5C000400,-0724,0831,12096,032.6,045.6,0.246,752.2,01.17,0.508
2016-06-19 02:03:00,2169E-3,5C000400,-0723,0830,12265,032.6,045.6,0.246,752.2,01.17,0.508
2016-06-19 02:04:00,2006E-3,5C000400,-0723,0831,12089,032.6,045.6,0.246,752.2,01.17,0.508
2016-06-19 02:05:00,2176E-3,5C000400,-0723,0831,12102,032.6,045.6,0.246,752.2,01.17,0.508
2016-06-19 02:06:00,2129E-3,5C000400,-0723,0831,12057,032.6,045.6,0.246,752.2,01.17,0.508
2016-06-19 02:07:00,2096E-3,5C000400,-0724,0831,12200,032.6,045.6,0.246,752.2,01.17,0.508
2016-06-19 02:08:00,2070E-3,5C000400,-0723,0831,12125,032.6,045.6,0.246,752.2,01.17,0.508
2016-06-19 02:09:00,2086E-3,5C000400,-0723,0830,12088,032.7,045.6,0.246,752.2,01.17,0.508
2016-06-19 02:10:00,2026E-3,5C000400,-0724,0831,12098,032.7,045.6,0.246,752.2,01.17,0.508
2016-06-19 02:11:00,2139E-3,5C000400,-0723,0831,12206,032.7,045.6,0.246,752.1,01.17,0.508
2016-06-19 02:12:00,2082E-3,5C000400,-0723,0832,12359,032.7,045.6,0.246,752.1,01.17,0.508
2016-06-19 02:13:00,2075E-3,5C000400,-0723,0831,11941,032.7,045.6,0.246,752.1,01.17,0.508
2016-06-19 02:14:00,2078E-3,5C000400,-0723,0832,12130,032.7,045.6,0.246,752.1,01.17,0.508
2016-06-19 02:15:00,1902E-3,5C000400,-0724,0832,12241,032.7,045.6,0.245,752.1,01.17,0.508
2016-06-19 02:16:00,2154E-3,5C000400,-0723,0831,12128,032.7,045.6,0.246,752.1,01.17,0.508
2016-06-19 02:17:00,2022E-3,5C000400,-0724,0831,11983,032.7,045.6,0.246,752.1,01.17,0.508
2016-06-19 02:18:00,2121E-3,5C000400,-0723,0832,12128,032.7,045.6,0.246,752.1,01.17,0.508
2016-06-19 02:19:00,2078E-3,5C000400,-0723,0831,12062,032.7,045.6,0.246,752.1,01.17,0.508
2016-06-19 02:20:00,2136E-3,5C000400,-0723,0831,12192,032.8,045.6,0.246,752.1,01.17,0.508
2016-06-19 02:21:00,2034E-3,5C000400,-0723,0831,12255,032.8,045.6,0.246,752.1,01.17,0.508
2016-06-19 02:22:00,2191E-3,5C000400,-0723,0831,12169,032.8,045.6,0.246,752.1,01.17,0.508
2016-06-19 02:23:00,2092E-3,5C000400,-0723,0831,12147,032.8,045.6,0.246,752.1,01.17,0.508
2016-06-19 02:24:00,2089E-3,5C000400,-0723,0831,12312,032.8,045.6,0.246,752.1,01.17,0.508
2016-06-19 02:25:00,1952E-3,5C000400,-0723,0832,12194,032.9,045.6,0.246,752.1,01.17,0.508
2016-06-19 02:26:00,2109E-3,5C000400,-0723,0832,12190,032.8,045.6,0.245,752.1,01.17,0.508
2016-06-19 02:27:00,2264E-3,5C000400,-0723,0832,12166,032.8,045.6,0.246,752.1,01.17,0.508
2016-06-19 02:28:00,2178E-3,5C000400,-0723,0832,12288,032.8,045.6,0.246,752.1,01.17,0.508
2016-06-19 02:29:00,2214E-3,5C000400,-0723,0831,12244,032.8,045.6,0.246,752.0,01.17,0.508
2016-06-19 02:30:00,2011E-3,5C000400,-0723,0833,12153,032.8,045.6,0.245,752.0,01.17,0.508
2016-06-19 02:31:00,2216E-3,5C000400,-0723,0832,12143,032.8,045.6,0.246,752.0,01.17,0.508
2016-06-19 02:32:00,2168E-3,5C000400,-0723,0832,12072,032.9,045.6,0.246,752.0,01.17,0.508
2016-06-19 02:33:00,2133E-3,5C000400,-0723,0832,12176,032.9,045.6,0.246,752.0,01.17,0.508
2016-06-19 02:34:00,2188E-3,5C000400,-0723,0832,11957,032.9,045.6,0.245,752.0,01.17,0.508
2016-06-19 02:35:00,1987E-3,5C000400,-0724,0831,12182,032.9,045.6,0.246,752.0,01.17,0.508
2016-06-19 02:36:00,2241E-3,5C000400,-0723,0831,12066,032.9,045.6,0.246,752.0,01.17,0.508
2016-06-19 02:37:00,2197E-3,5C000400,-0723,0831,12169,032.9,045.6,0.245,751.9,01.17,0.508
2016-06-19 02:38:00,2180E-3,5C000400,-0724,0831,12191,032.9,045.6,0.245,751.9,01.17,0.508
2016-06-19 02:39:00,2266E-3,5C000400,-0723,0832,12141,033.0,045.6,0.246,752.0,01.17,0.508
2016-06-19 02:40:00,2190E-3,5C000400,-0723,0831,12170,032.9,045.6,0.246,752.0,01.17,0.508
2016-06-19 02:41:00,2141E-3,5C000400,-0723,0831,12278,033.0,045.6,0.245,752.0,01.17,0.508
2016-06-19 02:42:00,2076E-3,5C000400,-0723,0831,12129,033.0,045.6,0.245,752.0,01.17,0.508
2016-06-19 02:43:00,2085E-3,5C000400,-0723,0831,12222,033.0,045.6,0.246,752.0,01.17,0.508
2016-06-19 02:44:00,2185E-3,5C000400,-0723,0831,12198,033.0,045.6,0.245,752.0,01.17,0.508
2016-06-19 02:45:00,2016E-3,5C000400,-0723,0832,12091,033.0,045.6,0.245,752.0,01.17,0.508
2016-06-19 02:46:00,2045E-3,5C000400,-0723,0831,12210,033.0,045.6,0.245,752.0,01.17,0.508
2016-06-19 02:47:00,2103E-3,5C000400,-0723,0831,12163,033.0,045.6,0.246,752.0,01.17,0.508
2016-06-19 02:48:00,2034E-3,5C000400,-0723,0831,12237,033.0,045.6,0.246,751.9,01.17,0.508
2016-06-19 02:49:00,2187E-3,5C000400,-0723,0831,12096,033.0,045.6,0.246,752.0,01.17,0.508
2016-06-19 02:50:00,2012E-3,5C000400,-0723,0832,12047,033.1,045.6,0.245,751.9,01.17,0.508
2016-06-19 02:51:00,2116E-3,5C000400,-0723,0831,12174,033.0,045.6,0.245,752.0,01.17,0.508
2016-06-19 02:52:00,2122E-3,5C000400,-0723,0830,12213,033.1,045.6,0.245,751.9,01.17,0.508
2016-06-19 02:53:00,2141E-3,5C000400,-0723,0831,12027,033.1,045.6,0.245,751.9,01.17,0.508
2016-06-19 02:54:00,2288E-3,5C000400,-0723,0831,12200,033.1,045.6,0.245,751.9,01.17,0.508
2016-06-19 02:55:00,2138E-3,5C000400,-0723,0831,12343,033.1,045.6,0.245,751.9,01.17,0.508
2016-06-19 02:56:00,2097E-3,5C000400,-0723,0832,12280,033.1,045.6,0.245,751.9,01.17,0.508
2016-06-19 02:57:00,2183E-3,5C000400,-0723,0831,12080,033.1,045.6,0.245,751.9,01.17,0.508
2016-06-19 02:58:00,2140E-3,5C000400,-0723,0832,12178,033.1,045.6,0.245,751.8,01.17,0.508
2016-06-19 02:59:00,2115E-3,5C000400,-0723,0831,11980,033.1,045.6,0.245,751.8,01.17,0.508
2016-06-19 03:00:00,2145E-3,5C000400,-0723,0831,12050,033.0,045.6,0.245,751.8,01.17,0.508
2016-06-19 03:01:00,2027E-3,5C000400,-0723,0831,12097,032.9,045.6,0.245,751.8,01.17,0.508
2016-06-19 03:02:00,2051E-3,5C000400,-0723,0831,12098,032.8,045.6,0.245,751.8,01.17,0.508
2016-06-19 03:03:00,2155E-3,5C000400,-0723,0831,12194,032.7,045.6,0.245,751.9,01.17,0.508
2016-06-19 03:04:00,2190E-3,5C000400,-0723,0832,12271,032.6,045.6,0.245,751.9,01.17,0.508
2016-06-19 03:05:00,2136E-3,5C000400,-0723,0831,12183,032.5,045.6,0.246,751.9,01.17,0.508
2016-06-19 03:06:00,2233E-3,5C000400,-0723,0831,12188,032.4,045.6,0.246,751.9,01.17,0.508
2016-06-19 03:07:00,2113E-3,5C000400,-0723,0831,12301,032.3,045.6,0.246,751.9,01.17,0.508
2016-06-19 03:08:00,2094E-3,5C000400,-0724,0831,12072,032.3,045.6,0.246,751.9,01.17,0.508
2016-06-19 03:09:00,2214E-3,5C000400,-0724,0832,12231,032.3,045.6,0.246,751.9,01.17,0.508
2016-06-19 03:10:00,2223E-3,5C000400,-0723,0832,12165,032.2,045.6,0.246,751.9,01.17,0.508
2016-06-19 03:11:00,2174E-3,5C000400,-0724,0831,12194,032.2,045.6,0.246,751.9,01.17,0.508
2016-06-19 03:12:00,2016E-3,5C000400,-0724,0831,12085,032.1,045.6,0.246,751.9,01.17,0.508
2016-06-19 03:13:00,2003E-3,5C000400,-0724,0831,12261,032.1,045.6,0.246,751.9,01.17,0.508
2016-06-19 03:14:00,2235E-3,5C000400,-0724,0831,12222,032.1,045.6,0.246,751.9,01.17,0.508
2016-06-19 03:15:00,2112E-3,5C000400,-0724,0831,12049,032.0,045.6,0.246,751.9,01.17,0.508
2016-06-19 03:16:00,2199E-3,5C000400,-0724,0830,12150,031.9,045.5,0.246,751.9,01.17,0.508
2016-06-19 03:17:00,2263E-3,5C000400,-0724,0831,12262,031.9,045.5,0.247,751.9,01.17,0.508
2016-06-19 03:18:00,2158E-3,5C000400,-0724,0830,12219,031.8,045.5,0.247,751.9,01.17,0.508
2016-06-19 03:19:00,2182E-3,5C000400,-0724,0831,12287,031.8,045.6,0.247,751.9,01.17,0.508
2016-06-19 03:20:00,2133E-3,5C000400,-0724,0831,12285,031.8,045.6,0.247,751.9,01.17,0.508
2016-06-19 03:21:00,2138E-3,5C000400,-0724,0832,12216,031.8,045.5,0.247,751.9,01.17,0.508
2016-06-19 03:22:00,2128E-3,5C000400,-0724,0831,12273,031.8,045.5,0.247,751.9,01.17,0.508
2016-06-19 03:23:00,2144E-3,5C000400,-0724,0832,12302,031.7,045.6,0.247,751.9,01.17,0.508
2016-06-19 03:24:00,2120E-3,5C000400,-0724,0831,12196,031.7,045.6,0.248,751.9,01.17,0.508
2016-06-19 03:25:00,2136E-3,5C000400,-0724,0831,12282,031.7,045.5,0.248,751.8,01.17,0.508
2016-06-19 03:26:00,2140E-3,5C000400,-0724,0831,12054,031.6,045.5,0.248,751.8,01.17,0.508
2016-06-19 03:27:00,2181E-3,5C000400,-0724,0830,12171,031.5,045.6,0.248,751.8,01.17,0.508
2016-06-19 03:28:00,2188E-3,5C000400,-0724,0830,12189,031.5,045.6,0.247,751.8,01.17,0.508
2016-06-19 03:29:00,2075E-3,5C000400,-0724,0831,12286,031.5,045.5,0.248,751.8,01.17,0.508
2016-06-19 03:30:00,2157E-3,5C000400,-0724,0831,12247,031.5,045.5,0.248,751.8,01.17,0.508
2016-06-19 03:31:00,2180E-3,5C000400,-0724,0831,12231,031.5,045.5,0.248,751.8,01.17,0.508
2016-06-19 03:32:00,2113E-3,5C000400,-0724,0831,12043,031.5,045.5,0.248,751.8,01.17,0.508
2016-06-19 03:33:00,2083E-3,5C000400,-0724,0832,12214,031.5,045.6,0.249,751.8,01.17,0.508
2016-06-19 03:34:00,2098E-3,5C000400,-0724,0831,12220,031.4,045.5,0.248,751.8,01.17,0.508
2016-06-19 03:35:00,1999E-3,5C000400,-0724,0831,12222,031.4,045.5,0.248,751.8,01.17,0.508
2016-06-19 03:36:00,2245E-3,5C000400,-0724,0830,12185,031.3,045.5,0.248,751.8,01.17,0.508
2016-06-19 03:37:00,2064E-3,5C000400,-0724,0831,12084,031.2,045.5,0.249,751.8,01.17,0.508
2016-06-19 03:38:00,2065E-3,5C000400,-0724,0831,12189,031.2,045.5,0.249,751.8,01.17,0.508
2016-06-19 03:39:00,2074E-3,5C000400,-0724,0830,12310,031.2,045.6,0.248,751.8,01.17,0.508
2016-06-19 03:40:00,2097E-3,5C000400,-0724,0831,12206,031.2,045.5,0.249,751.8,01.17,0.508
2016-06-19 03:41:00,2093E-3,5C000400,-0724,0831,12327,031.2,045.6,0.249,751.7,01.17,0.508
2016-06-19 03:42:00,2200E-3,5C000400,-0724,0830,12253,031.2,045.5,0.249,751.7,01.17,0.508
2016-06-19 03:43:00,2172E-3,5C000400,-0724,0831,12269,031.2,045.6,0.248,751.7,01.17,0.508
2016-06-19 03:44:00,2054E-3,5C000400,-0724,0831,12194,031.2,045.5,0.249,751.7,01.17,0.508
2016-06-19 03:45:00,2161E-3,5C000400,-0724,0831,12188,031.1,045.5,0.249,751.7,01.17,0.508
2016-06-19 03:46:00,2122E-3,5C000400,-0724,0830,12128,031.1,045.5,0.249,751.7,01.17,0.508
2016-06-19 03:47:00,2113E-3,5C000400,-0724,0831,12269,031.1,045.5,0.249,751.7,01.17,0.508
2016-06-19 03:48:00,2088E-3,5C000400,-0724,0830,12063,031.1,045.5,0.249,751.7,01.17,0.508
2016-06-19 03:49:00,2093E-3,5C000400,-0724,0831,12217,031.1,045.5,0.250,751.7,01.17,0.508
2016-06-19 03:50:00,2158E-3,5C000400,-0724,0830,12138,031.1,045.5,0.250,751.7,01.17,0.508
2016-06-19 03:51:00,2241E-3,5C000400,-0724,0831,12278,031.0,045.5,0.249,751.8,01.17,0.508
2016-06-19 03:52:00,2056E-3,5C000400,-0724,0831,12136,031.0,045.5,0.249,751.8,01.17,0.508
2016-06-19 03:53:00,2148E-3,5C000400,-0724,0830,12242,030.9,045.5,0.249,751.8,01.17,0.508
2016-06-19 03:54:00,1924E-3,5C000400,-0724,0830,12082,031.0,045.5,0.250,751.8,01.17,0.508
2016-06-19 03:55:00,2167E-3,5C000400,-0724,0831,12201,030.9,045.5,0.249,751.7,01.17,0.508
2016-06-19 03:56:00,2289E-3,5C000400,-0724,0830,12195,030.8,045.5,0.249,751.7,01.17,0.508
2016-06-19 03:57:00,2238E-3,5C000400,-0724,0829,12235,030.8,045.5,0.250,751.7,01.17,0.508
2016-06-19 03:58:00,2179E-3,5C000400,-0724,0830,12200,030.8,045.5,0.250,751.7,01.17,0.508
2016-06-19 03:59:00,2159E-3,5C000400,-0724,0830,12257,030.8,045.5,0.250,751.7,01.17,0.508
2016-06-19 04:00:00,2158E-3,5C000400,-0724,0831,12073,030.8,045.5,0.249,751.7,01.17,0.508
2016-06-19 04:01:00,2032E-3,5C000400,-0724,0831,12108,030.8,045.5,0.250,751.7,01.17,0.508
2016-06-19 04:02:00,2110E-3,5C000400,-0724,0830,12201,030.8,045.5,0.250,751.7,01.17,0.508
2016-06-19 04:03:00,2225E-3,5C000400,-0724,0830,12100,030.7,045.5,0.250,751.7,01.17,0.508
2016-06-19 04:04:00,2127E-3,5C000400,-0724,0830,12294,030.7,045.5,0.249,751.7,01.17,0.508
2016-06-19 04:05:00,2086E-3,5C000400,-0724,0831,12174,030.7,045.5,0.250,751.7,01.17,0.508
2016-06-19 04:06:00,2234E-3,5C000400,-0724,0830,12068,030.8,045.5,0.250,751.6,01.17,0.508
2016-06-19 04:07:00,2206E-3,5C000400,-0724,0830,12272,030.7,045.5,0.250,751.6,01.17,0.508
2016-06-19 04:08:00,1954E-3,5C000400,-0724,0830,12205,030.8,045.5,0.250,751.6,01.17,0.508
2016-06-19 04:09:00,2028E-3,5C000400,-0724,0829,12181,030.7,045.5,0.250,751.6,01.17,0.508
2016-06-19 04:10:00,2033E-3,5C000400,-0724,0830,12146,030.6,045.5,0.250,751.6,01.17,0.508
2016-06-19 04:11:00,2145E-3,5C000400,-0724,0830,12043,030.6,045.5,0.250,751.6,01.17,0.508
2016-06-19 04:12:00,2238E-3,5C000400,-0724,0830,12159,030.6,045.5,0.250,751.6,01.17,0.508
2016-06-19 04:13:00,2266E-3,5C000400,-0724,0831,12260,030.6,045.5,0.250,751.6,01.17,0.508
2016-06-19 04:14:00,2122E-3,5C000400,-0724,0830,12263,030.6,045.5,0.250,751.5,01.17,0.508
2016-06-19 04:15:00,2045E-3,5C000400,-0724,0831,12281,030.6,045.5,0.250,751.5,01.17,0.508
2016-06-19 04:16:00,2144E-3,5C000400,-0724,0829,12227,030.7,045.5,0.250,751.5,01.17,0.508
2016-06-19 04:17:00,2134E-3,5C000400,-0724,0830,12174,030.6,045.5,0.250,751.5,01.17,0.508
2016-06-19 04:18:00,2146E-3,5C000400,-0724,0831,12193,030.5,045.5,0.250,751.5,01.17,0.508
2016-06-19 04:19:00,2272E-3,5C000400,-0724,0831,12254,030.5,045.5,0.250,751.5,01.17,0.508
2016-06-19 04:20:00,2067E-3,5C000400,-0724,0830,12220,030.6,045.5,0.250,751.5,01.17,0.508